W4SNA-2 Weather Reports


Display with metric or nautical units.
time (UTC)temp
F
wind
direction
speed
MPH
gust
MPH
rain 1hr
in
rain 24hr
in
rain mn
in
humidity
%
barometer
mb
20260904024135 83 0 0.0 7.0 0.00 0.00 0.00 67 1021.8
20260904023635 83 0 0.0 3.0 0.00 0.00 0.00 66 1021.8
20260904023137 84 0 0.0 3.0 0.00 0.00 0.00 65 1021.8
20260904022635 84 0 0.0 5.0 0.00 0.00 0.00 64 1021.9
20260904022135 84 0 0.0 5.0 0.00 0.00 0.00 64 1021.9
20260904021635 84 0 0.0 3.0 0.00 0.00 0.00 64 1022.0
20260904021135 84 0 0.0 3.0 0.00 0.00 0.00 63 1021.9
20260904020635 84 0 0.0 3.0 0.00 0.00 0.00 62 1021.8
20260904020135 84 0 0.0 3.0 0.00 0.00 0.00 61 1021.7
20260904015635 84 0 0.0 0.0 0.00 0.00 0.00 61 1021.7
20260904015135 84 0 0.0 7.0 0.00 0.00 0.00 60 1021.8
20260904014635 84 0 0.0 7.0 0.00 0.00 0.00 59 1021.8
20260904014135 84 0 0.0 3.0 0.00 0.00 0.00 59 1021.8
20260904013635 84 0 0.0 3.0 0.00 0.00 0.00 58 1021.8
20260904013135 84 0 0.0 4.0 0.00 0.00 0.00 58 1021.7
20260904012635 84 0 0.0 4.0 0.00 0.00 0.00 58 1021.6
20260904012102 84 0 0.0 4.0 0.00 0.00 0.00 59 1021.6
20260904011602 84 0 0.0 4.0 0.00 0.00 0.00 61 1021.5
20260904011105 84 0 0.0 2.0 0.00 0.00 0.00 61 1021.5
20260904010602 84 0 0.0 3.0 0.00 0.00 0.00 63 1021.4
20260904005602 84 0 0.0 0.0 0.00 0.00 0.00 62 1021.4
20260904005102 84 0 0.0 3.0 0.00 0.00 0.00 63 1021.4
20260904004602 84 0 0.0 3.0 0.00 0.00 0.00 63 1021.4
20260904004102 84 0 0.0 3.0 0.00 0.00 0.00 63 1021.2
20260904003603 84 0 0.0 4.0 0.00 0.00 0.00 63 1021.1
20260904003102 84 0 0.0 4.0 0.00 0.00 0.00 63 1021.0
20260904002602 84 0 0.0 4.0 0.00 0.00 0.00 62 1020.9
20260904002102 84 0 0.0 2.0 0.00 0.00 0.00 63 1020.8
20260904001602 84 0 0.0 1.0 0.00 0.00 0.00 62 1020.7
20260904001104 84 0 0.0 1.0 0.00 0.00 0.00 63 1020.6
20260904000602 84 0 0.0 4.0 0.00 0.00 0.00 63 1020.6
20260903235602 85 0 0.0 3.0 0.00 0.00 0.00 63 1020.7
20260903235102 85 0 0.0 3.0 0.00 0.00 0.00 63 1020.5
20260903234602 85 0 0.0 1.0 0.00 0.00 0.00 63 1020.5
20260903234102 85 0 0.0 7.0 0.00 0.00 0.00 62 1020.3
20260903233602 85 0 0.0 7.0 0.00 0.00 0.00 62 1020.3
20260903233103 86 0 0.0 5.0 0.00 0.00 0.00 62 1020.4
20260903232602 86 0 0.0 4.0 0.00 0.00 0.00 62 1020.5
20260903232102 86 0 0.0 5.0 0.00 0.00 0.00 62 1020.4
20260903231602 86 0 0.0 5.0 0.00 0.00 0.00 62 1020.4
20260903231102 86 0 0.0 5.0 0.00 0.00 0.00 61 1020.4
20260903230604 87 0 0.0 5.0 0.00 0.00 0.00 61 1020.4
20260903225604 87 0 0.0 2.0 0.00 0.00 0.00 59 1020.2
20260903225102 87 0 0.0 0.0 0.00 0.00 0.00 58 1020.2
20260903224602 88 0 0.0 2.0 0.00 0.00 0.00 59 1020.3
20260903224102 88 0 0.0 2.0 0.00 0.00 0.00 58 1020.3
20260903223602 88 0 0.0 3.0 0.00 0.00 0.00 57 1020.3
20260903223104 88 0 0.0 3.0 0.00 0.00 0.00 57 1020.2
20260903222602 88 0 0.0 3.0 0.00 0.00 0.00 56 1020.2
20260903222103 88 0 0.0 4.0 0.00 0.00 0.00 56 1020.2
20260903221602 88 0 0.0 4.0 0.00 0.00 0.00 57 1020.3
20260903221103 89 302 1.0 4.0 0.00 0.00 0.00 56 1020.3
20260903220602 89 0 0.0 1.0 0.00 0.00 0.00 56 1020.3
20260903215603 89 0 0.0 4.0 0.00 0.00 0.00 55 1020.3
20260903215102 89 0 0.0 3.0 0.00 0.00 0.00 57 1020.4
20260903214602 90 0 0.0 4.0 0.00 0.00 0.00 55 1020.4
20260903214102 90 0 0.0 7.0 0.00 0.00 0.00 56 1020.3
20260903213602 90 0 0.0 7.0 0.00 0.00 0.00 56 1020.4
20260903213102 90 0 0.0 5.0 0.00 0.00 0.00 54 1020.3
20260903212605 91 0 0.0 4.0 0.00 0.00 0.00 56 1020.4
20260903212104 91 0 0.0 4.0 0.00 0.00 0.00 55 1020.5
20260903211602 91 302 1.0 5.0 0.00 0.00 0.00 54 1020.4
20260903211102 92 302 1.0 5.0 0.00 0.00 0.00 54 1020.5
20260903210602 92 0 0.0 5.0 0.00 0.00 0.00 55 1020.6
20260903205602 92 0 0.0 7.0 0.00 0.00 0.00 56 1020.6
20260903205102 91 0 0.0 5.0 0.00 0.00 0.00 53 1020.6
20260903204602 91 302 1.0 8.0 0.00 0.00 0.00 54 1020.7
20260903204102 91 0 0.0 8.0 0.00 0.00 0.00 55 1020.6
20260903203603 92 302 2.0 7.0 0.00 0.00 0.00 53 1020.8
20260903203103 92 0 0.0 9.0 0.00 0.00 0.00 53 1020.8
20260903202602 92 302 2.0 9.0 0.00 0.00 0.00 54 1020.8
20260903202102 92 0 0.0 8.0 0.00 0.00 0.00 54 1020.9
20260903201602 92 307 1.0 8.0 0.00 0.00 0.00 54 1021.0
20260903201104 92 0 0.0 8.0 0.00 0.00 0.00 55 1021.0
20260903200602 93 309 2.0 8.0 0.00 0.00 0.00 52 1021.1
20260903195602 93 0 0.0 5.0 0.00 0.00 0.00 54 1021.2
20260903195102 93 0 0.0 6.0 0.00 0.00 0.00 54 1021.2
20260903194602 93 316 1.0 8.0 0.00 0.00 0.00 53 1021.1
20260903194102 93 317 1.0 8.0 0.00 0.00 0.00 54 1021.2
20260903193602 93 325 1.0 8.0 0.00 0.00 0.00 53 1021.2
20260903193104 93 0 0.0 5.0 0.00 0.00 0.00 53 1021.4
20260903192602 92 327 1.0 5.0 0.00 0.00 0.00 52 1021.4
20260903192104 92 0 0.0 5.0 0.00 0.00 0.00 52 1021.4
20260903191602 92 327 1.0 5.0 0.00 0.00 0.00 52 1021.5
20260903190745 92 328 4.0 10.0 0.00 0.00 0.00 54 1021.5
20260903190245 91 328 3.0 8.0 0.00 0.00 0.00 55 1021.6
20260903185745 90 328 2.0 6.0 0.00 0.00 0.00 55 1021.6
20260903185245 92 328 1.0 6.0 0.00 0.00 0.00 53 1021.7
20260903184745 93 328 1.0 6.0 0.00 0.00 0.00 51 1021.7
20260903184245 93 328 2.0 6.0 0.00 0.00 0.00 53 1021.7
20260903183746 93 328 2.0 9.0 0.00 0.00 0.00 53 1021.9
20260903183245 93 328 4.0 9.0 0.00 0.00 0.00 53 1021.9
20260903182745 92 328 1.0 8.0 0.00 0.00 0.00 55 1022.0
20260903182245 92 328 1.0 8.0 0.00 0.00 0.00 56 1022.0
20260903181713 92 328 1.0 6.0 0.00 0.00 0.00 54 1022.0
20260903181156 91 0 0.0 3.0 0.00 0.00 0.00 57 1022.1
20260903180656 91 0 0.0 5.0 0.00 0.00 0.00 55 1022.2
20260903180157 91 328 2.0 6.0 0.00 0.00 0.00 55 1022.2
20260903175656 91 328 2.0 6.0 0.00 0.00 0.00 57 1022.2
20260903175157 90 328 1.0 5.0 0.00 0.00 0.00 59 1022.3
20260903174656 90 0 0.0 2.0 0.00 0.00 0.00 59 1022.3
20260903174158 90 0 0.0 2.0 0.00 0.00 0.00 60 1022.4
20260903173656 89 0 0.0 2.0 0.00 0.00 0.00 61 1022.5
20260903173155 88 0 0.0 2.0 0.00 0.00 0.00 60 1022.4
20260903172656 89 0 0.0 1.0 0.00 0.00 0.00 61 1022.5
20260903172156 89 0 0.0 2.0 0.00 0.00 0.00 61 1022.6
20260903171656 89 0 0.0 2.0 0.00 0.00 0.00 60 1022.6
20260903171157 88 0 0.0 1.0 0.00 0.00 0.00 62 1022.7
20260903170657 88 0 0.0 1.0 0.00 0.00 0.00 61 1022.7
20260903170201 88 0 0.0 2.0 0.00 0.00 0.00 61 1022.7
20260903165656 88 0 0.0 2.0 0.00 0.00 0.00 62 1022.8
20260903165157 88 0 0.0 2.0 0.00 0.00 0.00 61 1022.9
20260903164656 88 0 0.0 0.0 0.00 0.00 0.00 59 1023.0
20260903164159 88 0 0.0 0.0 0.00 0.00 0.00 59 1023.0
20260903163656 88 0 0.0 0.0 0.00 0.00 0.00 59 1023.0
20260903163156 89 0 0.0 0.0 0.00 0.00 0.00 57 1023.0
20260903162656 89 0 0.0 1.0 0.00 0.00 0.00 59 1023.0
20260903162158 88 0 0.0 2.0 0.00 0.00 0.00 59 1023.1
20260903161728 88 0 0.0 4.0 0.00 0.00 0.00 58 1023.1
20260903161656 88 0 0.0 4.0 0.00 0.00 0.00 58 1023.1
20260903161252 88 328 1.0 4.0 0.00 0.00 0.00 58 1023.1
20260903161159 88 328 1.0 4.0 0.00 0.00 0.00 58 1023.1
20260903160738 88 0 0.0 3.0 0.00 0.00 0.00 59 1023.2
20260903160656 88 0 0.0 3.0 0.00 0.00 0.00 59 1023.2
20260903160409 88 0 0.0 3.0 0.00 0.00 0.00 60 1023.2
20260903160156 88 0 0.0 3.0 0.00 0.00 0.00 60 1023.2
20260903155819 87 0 0.0 3.0 0.00 0.00 0.00 60 1023.2
20260903155656 87 0 0.0 3.0 0.00 0.00 0.00 60 1023.2
20260903155248 87 0 0.0 3.0 0.00 0.00 0.00 62 1023.2
20260903155158 87 0 0.0 3.0 0.00 0.00 0.00 62 1023.2
20260903154728 87 0 0.0 5.0 0.00 0.00 0.00 62 1023.3
20260903154656 87 0 0.0 5.0 0.00 0.00 0.00 62 1023.3
20260903154157 87 328 1.0 5.0 0.00 0.00 0.00 61 1023.4
20260903153656 88 0 0.0 2.0 0.00 0.00 0.00 60 1023.4
20260903153348 87 0 0.0 0.0 0.00 0.00 0.00 60 1023.3
20260903153344 87 0 0.0 3.0 0.00 0.00 0.00 63 1023.4
20260903153202 87 0 0.0 0.0 0.00 0.00 0.00 60 1023.3
20260903152657 87 0 0.0 3.0 0.00 0.00 0.00 63 1023.4
20260903152156 87 0 0.0 3.0 0.00 0.00 0.00 62 1023.5
20260903151656 87 0 0.0 4.0 0.00 0.00 0.00 62 1023.4
20260903151156 87 0 0.0 4.0 0.00 0.00 0.00 63 1023.4
20260903150734 87 0 0.0 3.0 0.00 0.00 0.00 62 1023.4
20260903150656 87 0 0.0 3.0 0.00 0.00 0.00 62 1023.4
20260903150159 87 0 0.0 2.0 0.00 0.00 0.00 61 1023.5
20260903145735 87 0 0.0 2.0 0.00 0.00 0.00 61 1023.4
20260903145657 87 0 0.0 2.0 0.00 0.00 0.00 61 1023.4
20260903145156 87 0 0.0 2.0 0.00 0.00 0.00 60 1023.4
20260903144656 87 0 0.0 0.0 0.00 0.00 0.00 60 1023.4
20260903144159 87 0 0.0 0.0 0.00 0.00 0.00 63 1023.4
20260903143656 86 0 0.0 0.0 0.00 0.00 0.00 61 1023.4
20260903143157 86 0 0.0 0.0 0.00 0.00 0.00 63 1023.4
20260903142657 86 0 0.0 1.0 0.00 0.00 0.00 62 1023.3
20260903142200 86 0 0.0 1.0 0.00 0.00 0.00 63 1023.3
20260903141656 86 0 0.0 0.0 0.00 0.00 0.00 63 1023.3
20260903141200 86 0 0.0 0.0 0.00 0.00 0.00 63 1023.3
20260903140656 85 0 0.0 0.0 0.00 0.00 0.00 63 1023.3
20260903140157 86 0 0.0 2.0 0.00 0.00 0.00 62 1023.3
20260903135657 85 0 0.0 2.0 0.00 0.00 0.00 62 1023.3
20260903135051 82 0 0.0 0.0 0.00 0.00 0.00 69 1023.1
20260903135003 85 0 0.0 0.0 0.00 0.00 0.00 63 1023.1
20260903134503 84 0 0.0 0.0 0.00 0.00 0.00 65 1023.2
20260903134005 84 0 0.0 0.0 0.00 0.00 0.00 67 1023.1
20260903133503 83 0 0.0 0.0 0.00 0.00 0.00 67 1023.1
20260903133003 83 0 0.0 0.0 0.00 0.00 0.00 67 1023.1
20260903132503 83 0 0.0 0.0 0.00 0.00 0.00 66 1023.1
20260903132003 82 0 0.0 0.0 0.00 0.00 0.00 68 1023.0
20260903131503 82 0 0.0 0.0 0.00 0.00 0.00 69 1023.1
20260903131003 82 0 0.0 0.0 0.00 0.00 0.00 70 1023.1
20260903130503 81 0 0.0 0.0 0.00 0.00 0.00 70 1023.2
20260903130004 81 0 0.0 2.0 0.00 0.00 0.00 71 1023.3
20260903125505 81 0 0.0 2.0 0.00 0.00 0.00 70 1023.2
20260903125003 80 0 0.0 2.0 0.00 0.00 0.00 73 1023.3
20260903124503 80 0 0.0 0.0 0.00 0.00 0.00 73 1023.2
20260903124003 80 0 0.0 0.0 0.00 0.00 0.00 73 1023.2
20260903123506 79 0 0.0 4.0 0.00 0.00 0.00 73 1023.1
20260903123014 79 328 1.0 4.0 0.00 0.00 0.00 74 1023.1
20260903122503 79 0 0.0 4.0 0.00 0.00 0.00 75 1023.0
20260903122003 79 0 0.0 3.0 0.00 0.00 0.00 74 1023.0
20260903121503 79 0 0.0 0.0 0.00 0.00 0.00 74 1023.0
20260903121052 79 0 0.0 3.0 0.00 0.00 0.00 74 1023.0
20260903121003 79 0 0.0 3.0 0.00 0.00 0.00 74 1023.0
20260903120503 79 0 0.0 3.0 0.00 0.00 0.00 74 1023.0
20260903120003 79 0 0.0 0.0 0.00 0.00 0.00 75 1022.9
20260903115503 78 0 0.0 0.0 0.00 0.00 0.00 75 1022.9
20260903115004 78 0 0.0 3.0 0.00 0.00 0.00 75 1022.9
20260903114503 78 0 0.0 4.0 0.00 0.00 0.00 76 1022.8
20260903114003 78 328 2.0 4.0 0.00 0.00 0.00 75 1022.7
20260903113424 78 328 2.0 5.0 0.00 0.00 0.00 75 1022.6
20260903112851 78 328 2.0 4.0 0.00 0.00 0.00 75 1022.6
20260903112131 78 0 0.0 0.0 0.00 0.00 0.00 74 1022.6
20260903111629 78 0 0.0 0.0 0.00 0.00 0.00 74 1022.5
20260903111130 78 0 0.0 3.0 0.00 0.00 0.00 74 1022.5
20260903110629 78 0 0.0 4.0 0.00 0.00 0.00 74 1022.3
20260903110131 78 328 2.0 4.0 0.00 0.00 0.00 74 1022.2
20260903105629 78 328 2.0 4.0 0.00 0.00 0.00 74 1022.2
20260903105128 78 328 1.0 4.0 0.00 0.00 0.00 74 1022.2
20260903104631 79 0 0.0 4.0 0.00 0.00 0.00 74 1022.1
20260903104132 79 328 2.0 4.0 0.00 0.00 0.00 74 1022.0
20260903103631 79 328 1.0 4.0 0.00 0.00 0.00 74 1022.0
20260903103129 79 328 1.0 3.0 0.00 0.00 0.00 74 1022.0
20260903102629 78 328 2.0 3.0 0.00 0.00 0.00 75 1022.0
20260903102132 78 328 1.0 4.0 0.00 0.00 0.00 75 1021.9
20260903101630 78 328 2.0 4.0 0.00 0.00 0.00 74 1021.9
20260903101130 77 328 2.0 4.0 0.00 0.00 0.00 75 1022.0
20260903100630 77 328 2.0 5.0 0.00 0.00 0.00 76 1022.1
20260903100128 77 328 3.0 6.0 0.00 0.00 0.00 77 1022.1
20260903095630 77 328 3.0 8.0 0.00 0.00 0.00 77 1022.0
20260903095129 77 328 3.0 8.0 0.00 0.00 0.00 77 1022.0
20260903094632 77 328 2.0 5.0 0.00 0.00 0.00 76 1022.1
20260903094130 78 328 1.0 6.0 0.00 0.00 0.00 75 1022.1
20260903093629 78 328 3.0 6.0 0.00 0.00 0.00 74 1022.0
20260903093136 78 328 3.0 5.0 0.00 0.00 0.00 73 1022.1
20260903092630 79 0 0.0 8.0 0.00 0.00 0.00 72 1022.1
20260903092128 79 328 1.0 8.0 0.00 0.00 0.00 71 1022.1
20260903091629 79 328 3.0 5.0 0.00 0.00 0.00 71 1022.0
20260903091129 79 328 2.0 5.0 0.00 0.00 0.00 70 1022.0
20260903090630 80 328 2.0 5.0 0.00 0.00 0.00 69 1022.0
20260903090130 80 328 3.0 5.0 0.00 0.00 0.00 69 1022.0
20260903085630 80 328 2.0 3.0 0.00 0.00 0.00 69 1022.0
20260903085129 80 328 2.0 3.0 0.00 0.00 0.00 69 1021.9
20260903084859 80 328 2.0 4.0 0.00 0.00 0.00 68 1021.9
20260903084630 80 328 2.0 5.0 0.00 0.00 0.00 69 1021.9
20260903084128 80 328 2.0 5.0 0.00 0.00 0.00 69 1021.9
20260903083628 80 328 2.0 4.0 0.00 0.00 0.00 69 1021.9
20260903083131 80 328 2.0 4.0 0.00 0.00 0.00 68 1021.9
20260903082628 80 328 2.0 5.0 0.00 0.00 0.00 68 1022.0
20260903082129 81 328 2.0 5.0 0.00 0.00 0.00 67 1022.0
20260903081631 81 328 3.0 5.0 0.00 0.00 0.00 67 1021.9
20260903081129 81 328 2.0 5.0 0.00 0.00 0.00 67 1021.9
20260903080630 81 328 2.0 4.0 0.00 0.00 0.00 68 1021.9
20260903080130 81 328 1.0 3.0 0.00 0.00 0.00 68 1021.9
20260903075628 81 0 0.0 3.0 0.00 0.00 0.00 68 1021.9
20260903075131 81 0 0.0 5.0 0.00 0.00 0.00 67 1021.9
20260903074630 81 328 2.0 5.0 0.00 0.00 0.00 67 1020.8
20260903074128 81 328 2.0 5.0 0.00 0.00 0.00 68 1020.8
20260903073629 81 328 2.0 6.0 0.00 0.00 0.00 68 1020.8
20260903073130 81 328 3.0 6.0 0.00 0.00 0.00 68 1020.8
20260903072629 81 328 3.0 5.0 0.00 0.00 0.00 68 1020.8
20260903072130 81 328 2.0 4.0 0.00 0.00 0.00 68 1020.7
20260903071630 81 328 2.0 4.0 0.00 0.00 0.00 68 1020.7
20260903071129 82 328 1.0 3.0 0.00 0.00 0.00 68 1020.6
20260903070630 81 0 0.0 3.0 0.00 0.00 0.00 68 1020.7
20260903070130 81 0 0.0 3.0 0.00 0.00 0.00 68 1020.7
20260903065504 81 0 0.0 3.0 0.00 0.00 0.00 68 1020.8
20260903064350 81 328 2.0 6.0 0.00 0.00 0.00 67 1020.7
20260903063850 81 328 2.0 5.0 0.00 0.00 0.00 65 1020.8
20260903063347 81 328 2.0 5.0 0.00 0.00 0.00 65 1020.9
20260903062846 81 328 3.0 5.0 0.00 0.00 0.00 67 1020.9
20260903062347 81 328 2.0 5.0 0.00 0.00 0.00 68 1020.9
20260903061847 81 328 2.0 5.0 0.00 0.00 0.00 68 1020.9
20260903061348 81 328 3.0 5.0 0.00 0.00 0.00 69 1020.9
20260903060848 81 328 2.0 5.0 0.00 0.00 0.00 69 1021.0
20260903060347 81 328 2.0 6.0 0.00 0.00 0.00 69 1021.0
20260903055849 81 328 3.0 6.0 0.00 0.00 0.00 69 1021.0
20260903055354 81 328 4.0 6.0 0.00 0.00 0.00 68 1020.9
20260903054848 81 328 4.0 6.0 0.00 0.00 0.00 67 1021.1
20260903054347 81 328 3.0 6.0 0.00 0.00 0.00 67 1021.0
20260903053846 81 328 3.0 6.0 0.00 0.00 0.00 67 1021.0
20260903053349 81 328 3.0 6.0 0.00 0.00 0.00 67 1021.2
20260903052847 81 328 3.0 6.0 0.00 0.00 0.00 67 1021.1
20260903052346 82 328 3.0 6.0 0.00 0.00 0.00 66 1021.2
20260903051847 82 328 3.0 6.0 0.00 0.00 0.00 66 1021.1
20260903051348 82 328 3.0 8.0 0.00 0.00 0.00 65 1021.1
20260903050849 82 328 4.0 9.0 0.00 0.00 0.00 65 1021.0
20260903050348 82 328 4.0 9.0 0.00 0.00 0.00 67 1021.0
20260903045507 81 328 4.0 8.0 0.00 0.00 0.00 68 1021.0
20260903045007 81 328 4.0 9.0 0.00 0.00 0.00 67 1021.0
20260903044507 81 328 4.0 9.0 0.00 0.00 0.00 67 1021.1
20260903044007 82 328 4.0 10.0 0.00 0.00 0.00 66 1021.2
20260903043507 82 328 4.0 10.0 0.00 0.00 0.00 65 1021.1
20260903043007 83 328 4.0 6.0 0.00 0.00 0.00 63 1021.1
20260903042433 83 328 3.0 8.0 0.00 0.00 0.00 62 1021.1
20260903041748 83 328 3.0 8.0 0.00 0.00 0.00 62 1021.0
20260903041248 83 328 3.0 8.0 0.00 0.00 0.00 62 1021.1
20260903040749 83 328 3.0 6.0 0.00 0.00 0.00 61 1021.3
20260903040248 83 328 2.0 8.0 0.00 0.00 0.00 62 1021.4
20260903035748 83 328 3.0 8.0 0.00 0.00 0.00 62 1021.3
20260903035248 83 328 2.0 5.0 0.00 0.00 0.00 61 1021.3
20260903034748 83 328 2.0 5.0 0.00 0.00 0.00 62 1021.3
20260903034248 83 328 2.0 5.0 0.00 0.00 0.00 63 1021.4
20260903033748 83 328 1.0 3.0 0.00 0.00 0.00 64 1021.5
20260903033249 83 0 0.0 1.0 0.00 0.00 0.00 64 1021.6
20260903032748 83 0 0.0 1.0 0.00 0.00 0.00 64 1021.6
20260903032248 83 0 0.0 2.0 0.00 0.00 0.00 64 1021.6
20260903031748 83 0 0.0 2.0 0.00 0.00 0.00 64 1021.6
20260903031248 83 0 0.0 2.0 0.00 0.00 0.00 65 1021.6
20260903030748 83 0 0.0 3.0 0.00 0.00 0.00 65 1021.7
20260903030248 83 0 0.0 4.0 0.00 0.00 0.00 66 1021.7
20260903025748 83 0 0.0 4.0 0.00 0.00 0.00 65 1021.7
20260903025248 83 0 0.0 4.0 0.00 0.00 0.00 65 1021.8
20260903024748 83 0 0.0 4.0 0.00 0.00 0.00 64 1021.9